WASEDA-SAT3 (41933 NORAD) Tracking and Keplerian Element Data

This shows tracking and keplerian element data for the satellite.

Feedback or suggestion? Click here.




ElementValue
Catalog41933
NameWASEDA-SAT3
Epoch Orbit9854
Epoch Day279.0512944
Epoch Year2018
RAAN107.1518
Inclination51.6134
Eccentricity0.0008522
Argument of Perigee281.0761
Mean Anonmoly78.9308
Mean Motion16.42208149
Decay Rate0.08880754
L11 41933U 98067KV 18279.05129440 .08880754 12487-4 45483-3 0 9995
L22 41933 51.6134 107.1518 0008522 281.0761 78.9308 16.42208149 98545



Live tracking and technical data element details for WASEDA-SAT3 (NORAD 41933). WASEDA-SAT3 can be tracked NOW for your location showing map with azimuth and elevation plus other details from your city location.







IsCatalogInMostPopularTable: catalog: 41933, numindb: 603
Update: records affected: 1



GetName: 41933 WASEDA-SAT3

Hit Count: updated at: Tue, 03 Dec 2024 02:00:01 GMT